Regional Weather Roundup
Issued by NWS Newport/Morehead, NC

Current Version | Previous Version | Text Only | Print | Product List | Glossary Off
Versions: 1 2 3 4 5 6 7 8 9 10 11 12 13 14 15 16 17 18 19 20 21 22 23 24 25 26 27 28 29 30 31 32 33 34 35 36 37 38 39 40 41 42 43 44 45 46 47 48 49 50
000 ASUS42 KMHX 031913 RWRMHX WEATHER ROUNDUP FOR EASTERN NORTH CAROLINA NATIONAL WEATHER SERVICE NEWPORT/MOREHEAD CITY NC 300 PM EDT TUE MAY 03 2016 NOTE: "FAIR" INDICATES FEW OR NO CLOUDS BELOW 12,000 FEET WITH NO SIGNIFICANT WEATHER AND/OR OBSTRUCTIONS TO VISIBILITY NCZ015>017-031-032-045>047-102-103-032000- NORTH COAST CITY SKY/WX TMP DP RH WIND PRES REMARKS EDENTON CLOUDY 71 69 92 SW8 29.80S ELIZABETH CITY CLOUDY 71 65 81 S13 29.78F KITTY HAWK CLOUDY 71 66 84 W5 29.78F MANTEO NOT AVBL $$ NCZ045>047-081-094-103-104-032000- CENTRAL COAST CITY SKY/WX TMP DP RH WIND PRES REMARKS FRISCO LGT RAIN 68 64 87 SW10 29.80F SWANQUARTER NOT AVBL $$ NCZ095-097-098-100-101-032000- SOUTHERN COAST CITY SKY/WX TMP DP RH WIND PRES REMARKS BEAUFORT CLOUDY 69 65 86 S10 29.81F CEDAR ISLAND NOT AVBL JACKSONVILLE MOSUNNY 75 67 76 S12 29.79F PINEY ISLAND NOT AVBL WILMINGTON CLOUDY 75 68 78 S9 29.80F $$ NCZ011>013-027>030-043-044-078>080-089-090>093-098-032000- COASTAL PLAIN CITY SKY/WX TMP DP RH WIND PRES REMARKS AHOSKIE MOSUNNY 73 66 79 S5 29.78S CLINTON PTSUNNY 74 69 84 CALM 29.80F ELIZABETHTOWN SUNNY 77 65 67 SW3 29.80F GOLDSBORO CLOUDY 75 73 91 S7 29.77F GREENVILLE PTSUNNY 73 68 83 SW13G18 29.82F HAVELOCK CLOUDY 73 67 81 S12G18 29.81F KENANSVILLE CLOUDY 74 65 73 CALM 29.81F KINSTON PTSUNNY 73 66 78 SW5 29.81F NEW BERN CLOUDY 76 66 71 SW10 29.80F RICHLANDS PTSUNNY 78 68 71 SW8 29.80F ROCKY MOUNT MOSUNNY 76 67 73 SW8 29.77F WASHINGTON CLOUDY 71 64 80 SW8 29.80F WHITEVILLE MOSUNNY 79 67 65 NW3 29.79F $$ AMZ130-135-150-152-154-156-158-170-250-252-270-ANZ085-086-088-633-658-670-032000- MARINE OBSERVATIONS STATION/POSITION TIME TEMP WIND PRES WAVE SWELL AIR SEA DIR/SP/G HT/PER HT/PER (UTC) (F) (DEG/KT/KT) (MB) (FT/S) (FT/S) CHESAPEAKE LIGHT 1800 64 200/ 15/ 16 1009.1 64 E VA BEACH 1850 57 54 170/ 8/ 10 1008.7 4/ 7 3/ 7 DUCK 1800 68 67 210/ 11/ 15 1008.4 2 E DUCK 1811 58 N/A 2/ 9 OREGON INLET 1800 69 71 210/ 10/ 12 1009.1 13E OREGON INLT 1800 62 N/A 5/ 7 5/ 7 HATTERAS CG 1800 69 69 220/ 10/ 15 1009.6 DIAMOND BUOY 1850 70 71 210/ 16/ 19 1009.6 4/ 7 3/ 7 CAPE LOOKOUT 1900 68 190/ 15/ 17 1009.0 BEAUFORT LAB 1800 67 68 210/ 6/ 9 1009.2 30 SE NEW RVR IN 1825 70 N/A 6/ 7 27 SE WRIGHTSVLE 1808 71 72 180/ 10/ 14 N/A 5 SE WRIGHTSVLE NOT AVBL 225 S CAPE HAT 1850 74 74 170/ 17/ 21 1013.4 4/ 6 2/10 41 SE CHARLESTON 1850 74 75 220/ 14/ 16 1009.6 5/ 6 3/ 8 $$

USA.gov is the U.S. government's official web portal to all federal, state and local government web resources and services.